MDT,Max TemperatureF,Mean TemperatureF,Min TemperatureF,Max Dew PointF,MeanDew PointF,Min DewpointF,Max Humidity, Mean Humidity, Min Humidity, Max Sea Level PressureIn, Mean Sea Level PressureIn, Min Sea Level PressureIn, Max VisibilityMiles, Mean VisibilityMiles, Min VisibilityMiles, Max Wind SpeedMPH, Mean Wind SpeedMPH, Max Gust SpeedMPH,PrecipitationIn, CloudCover, Events, WindDirDegrees
2013-10-1,67,51,34,41,38,33,100,69,37,30.00,29.95,29.87,10,10,10,23,6,32,0.00,0,,275
2013-10-2,54,47,39,38,32,30,85,63,41,30.07,29.96,29.83,10,10,10,22,6,31,0.02,2,Rain,271
2013-10-3,43,39,34,37,34,30,100,84,67,30.17,29.97,29.88,10,9,2,33,13,41,0.15,6,Rain,255
2013-10-4,52,43,34,35,32,27,92,65,38,30.44,30.35,30.19,10,10,10,12,5,17,T,4,Rain,250
2013-10-5,59,44,29,35,29,27,85,58,30,30.50,30.44,30.39,10,10,10,12,4,14,0.00,0,,218
2013-10-6,72,50,28,36,30,24,100,60,20,30.40,30.27,30.08,10,10,10,9,3,14,0.00,0,,60
2013-10-7,70,54,37,36,31,25,76,49,22,30.06,29.94,29.81,10,10,10,13,3,15,0.00,0,,26
2013-10-8,53,43,32,34,31,27,82,60,38,29.97,29.88,29.80,10,10,10,22,11,31,0.00,0,,252
2013-10-9,60,46,32,61,33,27,92,63,33,30.08,29.81,29.71,10,10,10,13,3,16,0.00,2,,253
2013-10-10,54,45,36,35,32,27,89,65,41,29.84,29.76,29.73,10,10,10,22,10,31,T,3,Rain,253
2013-10-11,54,44,33,30,28,25,76,57,38,30.06,30.00,29.86,10,10,10,18,9,24,0.00,0,,248
2013-10-12,62,47,32,35,32,28,89,61,32,30.04,29.95,29.86,10,10,10,13,4,17,T,2,,47
2013-10-13,49,45,41,42,39,35,96,79,61,30.08,29.99,29.87,10,10,7,15,7,21,0.03,8,Rain,257
2013-10-14,51,44,36,35,32,30,85,65,44,30.29,30.21,30.10,10,10,10,21,8,26,0.03,7,Rain,263
2013-10-15,54,40,26,34,28,23,100,65,29,30.36,30.29,30.23,10,9,5,12,4,15,0.00,0,,146
2013-10-16,57,44,30,30,26,23,78,53,27,30.25,30.17,30.10,10,9,3,13,5,16,0.00,0,,216
2013-10-17,56,42,28,31,28,23,82,60,38,30.19,30.13,30.08,10,10,10,15,6,22,0.00,0,Rain,252
2013-10-18,56,41,25,32,28,22,92,65,38,30.32,30.25,30.18,10,10,10,8,2,10,0.00,0,,233
2013-10-19,63,45,27,29,27,22,85,55,25,30.25,30.15,30.00,10,10,10,18,6,24,0.00,0,,246
2013-10-20,59,48,37,33,29,23,70,51,32,30.10,30.04,29.97,10,10,10,17,5,22,0.00,0,,236
2013-10-21,63,46,29,36,32,26,85,61,36,30.25,30.19,30.10,10,10,10,13,3,14,0.00,0,,219
2013-10-22,70,49,28,37,32,28,100,62,23,30.28,30.18,30.10,10,10,6,8,2,11,0.00,0,,51
2013-10-23,68,48,27,35,31,28,92,58,24,30.19,30.11,30.05,10,10,10,9,3,13,0.00,0,,74
2013-10-24,69,49,28,33,30,27,92,57,22,30.18,30.12,30.04,10,10,10,9,3,13,0.00,0,,70
2013-10-25,66,48,30,34,30,26,85,55,24,30.27,30.20,30.13,10,10,10,8,3,10,0.00,0,,225
2013-10-26,68,48,27,35,29,24,92,57,22,30.37,30.26,30.14,10,10,10,8,3,10,0.00,0,,45
2013-10-27,69,49,28,31,25,17,92,53,14,30.12,29.79,29.46,,,,20,6,28,0.00,2,,168
2013-10-28,55,45,34,42,35,31,85,63,41,29.73,29.49,29.39,,,,25,10,33,0.02,6,Rain,90
2013-10-29,51,41,30,36,34,29,100,81,61,29.98,29.87,29.75,,,,14,6,19,T,3,Rain,248
2013-10-30,45,40,35,33,31,29,89,73,57,30.11,30.02,29.96,,,,25,14,32,T,6,,250
2013-10-31,52,44,36,38,32,28,76,59,41,30.17,30.11,30.06,10,10,10,26,16,36,T,4,Rain,252